Latest Weather Observations for Kanagulk

IDV60801

Issued at 7:35 pm EST Friday 22 August 2014 (issued every 30 minutes, with the page automatically refreshed every 10 minutes)

About weather observations | Map of weather stations | Latest weather observations for VIC | Other Formats
Station Details ID: 079097 Name: KANAGULK Lat: -37.12 Lon: 141.80 Height: 188.8 m
Data from the previous 72 hours. | See also: Recent months at Kanagulk
Date/Time
EST
Temp
°C
App
Temp
°C
Dew
Point
Rel
Hum
%
Delta-T
°C
Wind Press
QNH
hPa
Press
MSL
hPa
Rain
since 9 am
mm
Dir
 
Spd
km/h
Gust
km/h
Spd
kts
Gust
kts
22/07:30pm 10.9 7.6 6.3 73 2.2 NE 13 17 7 9 1025.9 1026.2 0.0
22/07:00pm 11.0 7.7 6.2 72 2.3 NE 13 15 7 8 1025.8 1026.1 0.0
22/06:30pm 11.1 8.1 5.8 70 2.5 NE 11 13 6 7 1025.7 1026.0 0.0
22/06:00pm 13.2 9.8 6.1 62 3.4 NE 13 17 7 9 1025.5 1025.8 0.0
22/05:30pm 15.0 10.9 6.3 56 4.2 NNE 17 20 9 11 1025.5 1025.8 0.0
22/05:00pm 16.2 11.8 6.6 53 4.7 NE 19 28 10 15 1025.5 1025.8 0.0
22/04:30pm 16.7 11.9 5.6 48 5.4 NE 20 30 11 16 1025.3 1025.5 0.0
22/04:00pm 17.2 12.5 6.1 48 5.4 NE 20 28 11 15 1025.4 1025.7 0.0
22/03:30pm 15.4 11.0 6.4 55 4.4 NNE 19 28 10 15 1025.8 1026.1 0.0
22/03:00pm 16.7 13.9 8.4 58 4.2 NE 13 15 7 8 1026.1 1026.4 0.0
22/02:30pm 17.5 13.3 8.1 54 4.8 NE 20 28 11 15 1026.4 1026.7 0.0
22/02:00pm 16.7 12.5 8.1 57 4.4 NE 20 32 11 17 1026.7 1027.0 0.0
22/01:30pm 16.7 12.7 8.9 60 4.1 NNE 20 30 11 16 1027.1 1027.4 0.0
22/01:00pm 15.9 11.5 7.4 57 4.2 NE 20 28 11 15 1027.7 1028.0 0.0
22/12:30pm 16.0 10.6 8.2 60 4.0 NE 26 33 14 18 1028.0 1028.3 0.0
22/12:00pm 15.8 11.2 8.3 61 3.8 NNE 22 30 12 16 1028.5 1028.8 0.0
22/11:30am 15.0 10.0 8.0 63 3.5 NE 24 32 13 17 1028.9 1029.2 0.0
22/11:00am 14.1 9.2 8.5 69 2.8 NE 24 35 13 19 1029.2 1029.5 0.0
22/10:30am 12.4 7.2 7.3 71 2.5 NNE 24 33 13 18 1029.5 1029.8 0.0
22/10:00am 11.4 6.9 7.1 75 2.1 NNE 20 30 11 16 1029.7 1030.0 0.0
22/09:30am 10.9 5.6 6.6 75 2.0 NE 24 32 13 17 1029.7 1030.0 0.0
22/09:00am 10.4 5.8 6.7 78 1.7 NE 20 30 11 16 1029.6 1029.9 0.0
22/08:30am 9.9 5.3 6.6 80 1.6 NE 20 26 11 14 1029.4 1029.7 0.0
22/08:00am 9.4 4.4 6.3 81 1.4 NE 22 28 12 15 1029.0 1029.3 0.0
22/07:30am 8.9 4.8 6.3 84 1.2 NE 17 22 9 12 1028.7 1029.0 0.0
22/07:00am 8.6 4.9 6.2 85 1.1 NNE 15 19 8 10 1028.3 1028.6 0.0
22/06:30am 8.6 5.4 6.7 88 0.9 NE 13 19 7 10 1027.9 1028.2 0.0
22/06:00am 7.6 5.1 6.7 94 0.4 NE 9 13 5 7 1027.8 1028.1 0.0
22/05:30am 6.5 3.8 5.5 93 0.4 ENE 9 11 5 6 1027.7 1028.0 0.0
22/05:00am 6.5 3.8 5.6 94 0.4 NE 9 11 5 6 1027.8 1028.1 0.0
22/04:30am 6.6 3.6 5.9 95 0.3 NE 11 13 6 7 1027.7 1028.0 0.0
22/04:00am 6.4 3.5 6.3 99 0.0 NNE 11 13 6 7 1027.7 1028.0 0.0
22/03:30am 4.7 3.5 4.6 99 0.0 CALM 0 0 0 0 1027.7 1028.0 0.0
22/03:00am 3.9 1.4 3.8 99 0.0 NNE 6 7 3 4 1027.8 1028.1 0.0
22/02:30am 3.7 1.1 3.4 98 0.1 NNE 6 7 3 4 1028.0 1028.3 0.0
22/02:00am 4.2 1.8 4.1 99 0.0 NE 6 7 3 4 1028.2 1028.5 0.0
22/01:30am 4.2 2.9 3.9 98 0.1 CALM 0 0 0 0 1028.2 1028.5 0.0
22/01:00am 4.4 3.1 4.1 98 0.1 CALM 0 0 0 0 1028.1 1028.4 0.0
22/12:30am 3.5 1.6 3.1 97 0.2 NNE 2 7 1 4 1028.1 1028.4 0.0
22/12:00am 3.6 2.1 3.0 96 0.2 NE 0 0 0 0 1028.1 1028.4 0.0
 
Date/Time
EST
Temp
°C
App
Temp
°C
Dew
Point
Rel
Hum
%
Delta-T
°C
Wind Press
QNH
hPa
Press
MSL
hPa
Rain
since 9 am
mm
Dir
 
Spd
km/h
Gust
km/h
Spd
kts
Gust
kts
21/11:30pm 3.8 2.3 3.1 95 0.3 CALM 0 0 0 0 1028.0 1028.3 0.0
21/11:00pm 4.2 2.7 3.2 93 0.4 CALM 0 0 0 0 1028.0 1028.3 0.0
21/10:30pm 5.3 4.0 4.1 92 0.5 CALM 0 0 0 0 1028.1 1028.4 0.0
21/10:00pm 5.2 3.8 3.7 90 0.6 CALM 0 0 0 0 1028.1 1028.4 0.0
21/09:30pm 5.6 4.2 3.6 87 0.8 CALM 0 0 0 0 1028.1 1028.4 0.0
21/09:00pm 6.2 4.8 3.7 84 1.1 CALM 0 0 0 0 1027.8 1028.1 0.0
21/08:30pm 7.0 5.7 4.1 82 1.3 CALM 0 0 0 0 1027.6 1027.9 0.0
21/08:00pm 7.2 4.8 4.2 81 1.3 E 6 7 3 4 1027.5 1027.8 0.0
21/07:30pm 7.4 5.4 4.2 80 1.4 ESE 4 7 2 4 1027.4 1027.7 0.0
21/07:00pm 8.5 6.2 4.7 77 1.7 E 6 7 3 4 1027.2 1027.5 0.0
21/06:30pm 8.8 6.3 4.6 75 1.9 E 7 9 4 5 1027.0 1027.3 0.0
21/06:00pm 10.0 7.7 5.0 71 2.3 ENE 6 7 3 4 1026.9 1027.2 0.0
21/05:30pm 12.0 9.6 5.4 64 3.1 ENE 7 9 4 5 1026.5 1026.8 0.0
21/05:00pm 12.9 10.1 5.1 59 3.6 NE 9 13 5 7 1026.3 1026.6 0.0
21/04:30pm 13.2 10.8 5.1 58 3.8 ENE 7 11 4 6 1026.0 1026.3 0.0
21/04:00pm 12.6 9.7 4.8 59 3.6 ENE 9 15 5 8 1026.0 1026.3 0.0
21/03:30pm 13.2 10.3 4.9 57 3.9 ENE 9 15 5 8 1026.0 1026.3 0.0
21/03:00pm 13.2 11.3 4.9 57 3.9 E 4 9 2 5 1026.0 1026.3 0.0
21/02:30pm 12.8 11.6 4.5 57 3.8 CALM 0 0 0 0 1026.1 1026.4 0.0
21/02:00pm 12.8 11.3 5.0 59 3.6 NE 2 9 1 5 1026.2 1026.5 0.0
21/01:30pm 12.6 11.0 4.6 58 3.7 WNW 2 9 1 5 1026.6 1026.9 0.0
21/01:00pm 13.2 11.8 5.4 59 3.7 NNW 2 9 1 5 1026.9 1027.2 0.0
21/12:30pm 12.2 11.1 4.9 61 3.4 CALM 0 0 0 0 1027.5 1027.8 0.0
21/12:00pm 12.7 10.5 5.4 61 3.4 NW 6 15 3 8 1027.8 1028.1 0.0
21/11:30am 11.9 10.0 5.1 63 3.2 E 4 13 2 7 1028.1 1028.4 0.0
21/11:00am 11.5 9.9 4.7 63 3.1 SW 2 11 1 6 1028.2 1028.5 0.0
21/10:30am 11.3 9.2 5.8 69 2.6 NE 6 11 3 6 1028.5 1028.8 0.0
21/10:00am 10.6 9.8 6.7 77 1.8 CALM 0 0 0 0 1028.6 1028.9 0.0
21/09:30am 9.3 9.1 9.0 98 0.1 CALM 0 0 0 0 1028.6 1028.9 0.0
21/09:00am 7.1 6.4 7.0 99 0.0 CALM 0 0 0 0 1028.6 1028.9 0.0
21/08:30am 5.6 4.6 5.5 99 0.0 CALM 0 0 0 0 1028.5 1028.8 0.0
21/08:00am 3.1 1.6 3.0 99 0.0 CALM 0 0 0 0 1028.2 1028.5 0.0
21/07:30am 1.0 -0.8 0.9 99 0.0 CALM 0 0 0 0 1027.9 1028.2 0.0
21/07:00am 2.5 0.9 2.4 99 0.0 CALM 0 0 0 0 1027.7 1028.0 0.0
21/06:30am 1.6 -0.2 1.5 99 0.0 CALM 0 0 0 0 1027.6 1027.9 0.0
21/06:00am 1.4 -0.4 1.3 99 0.0 CALM 0 0 0 0 1027.4 1027.7 0.0
21/05:30am 1.9 0.2 1.8 99 0.0 CALM 0 0 0 0 1027.3 1027.6 0.0
21/05:00am 1.8 0.1 1.7 99 0.0 CALM 0 0 0 0 1027.2 1027.5 0.0
21/04:30am 2.0 0.3 1.7 98 0.1 CALM 0 0 0 0 1027.1 1027.4 0.0
21/04:00am 3.4 1.9 3.1 98 0.1 CALM 0 0 0 0 1027.1 1027.4 0.0
21/03:30am 4.0 2.6 3.6 97 0.2 CALM 0 0 0 0 1027.1 1027.4 0.0
21/03:00am 4.8 3.5 4.2 96 0.3 CALM 0 0 0 0 1027.3 1027.6 0.0
21/02:30am 6.3 5.3 5.7 96 0.3 CALM 0 0 0 0 1027.5 1027.8 0.0
21/02:00am 6.0 4.9 5.3 95 0.3 CALM 0 0 0 0 1027.5 1027.8 0.0
21/01:30am 5.4 4.1 4.2 92 0.5 CALM 0 2 0 1 1027.6 1027.9 0.0
21/01:00am 5.6 4.3 4.1 90 0.6 CALM 0 0 0 0 1027.6 1027.9 0.0
21/12:30am 5.4 4.0 3.3 86 0.9 CALM 0 0 0 0 1027.6 1027.9 0.0
21/12:00am 6.4 4.6 3.2 80 1.3 S 2 6 1 3 1027.6 1027.9 0.0
 
Date/Time
EST
Temp
°C
App
Temp
°C
Dew
Point
Rel
Hum
%
Delta-T
°C
Wind Press
QNH
hPa
Press
MSL
hPa
Rain
since 9 am
mm
Dir
 
Spd
km/h
Gust
km/h
Spd
kts
Gust
kts
20/11:30pm 7.5 5.1 4.1 79 1.5 S 6 7 3 4 1027.7 1028.0 0.0
20/11:00pm 7.8 5.1 3.5 74 1.8 S 7 9 4 5 1027.7 1028.0 0.0
20/10:30pm 7.8 5.6 3.3 73 1.9 S 4 9 2 5 1027.8 1028.1 0.0
20/10:00pm 8.2 5.5 3.5 72 2.0 ESE 7 11 4 6 1027.8 1028.1 0.0
20/09:30pm 8.4 5.7 3.7 72 2.1 ESE 7 9 4 5 1027.7 1028.0 0.0
20/09:00pm 8.9 5.4 3.7 70 2.3 ESE 11 13 6 7 1027.8 1028.1 0.0
20/08:30pm 9.1 6.0 3.7 69 2.4 ESE 9 20 5 11 1027.7 1028.0 0.0
20/08:00pm 9.2 5.8 4.2 71 2.2 SSE 11 13 6 7 1027.8 1028.1 0.0
20/07:30pm 9.4 6.7 3.8 68 2.5 SE 7 9 4 5 1027.7 1028.0 0.0
20/07:00pm 9.6 6.5 3.6 66 2.6 SE 9 11 5 6 1027.6 1027.9 0.0
20/06:30pm 9.6 5.4 3.6 66 2.6 SSE 15 20 8 11 1027.5 1027.8 0.0
20/06:00pm 10.0 5.8 4.0 66 2.7 SSE 15 20 8 11 1027.2 1027.5 0.0
20/05:30pm 10.1 6.6 5.5 73 2.1 S 13 17 7 9 1027.1 1027.4 0.0
20/05:00pm 10.3 6.4 5.3 71 2.3 SSE 15 20 8 11 1027.0 1027.3 0.0
20/04:30pm 11.0 7.6 3.8 61 3.2 S 11 17 6 9 1026.8 1027.1 0.0
20/04:00pm 10.9 6.6 3.5 60 3.3 S 15 22 8 12 1026.7 1027.0 0.0
20/03:30pm 11.1 7.0 4.6 64 3.0 S 15 20 8 11 1026.6 1026.9 0.0
20/03:00pm 11.7 8.0 4.2 60 3.4 S 13 17 7 9 1026.6 1026.9 0.0
20/02:30pm 11.0 6.2 4.9 66 2.8 S 19 28 10 15 1026.5 1026.8 0.0
20/02:00pm 10.8 6.4 4.9 67 2.7 S 17 22 9 12 1026.5 1026.8 0.0
20/01:30pm 11.2 7.3 5.5 68 2.7 S 15 20 8 11 1026.7 1027.0 0.0
20/01:00pm 11.2 7.5 4.7 64 3.0 S 13 17 7 9 1027.0 1027.3 0.0
20/12:30pm 11.2 6.8 4.9 65 2.9 S 17 24 9 13 1027.2 1027.5 0.0
20/12:00pm 11.1 7.4 4.3 63 3.1 S 13 22 7 12 1027.5 1027.8 0.0
20/11:30am 11.1 7.0 4.3 63 3.1 SSE 15 24 8 13 1027.8 1028.1 0.0
20/11:00am 10.7 5.6 4.2 64 2.9 SSE 20 24 11 13 1027.8 1028.1 0.0
20/10:30am 10.4 5.3 4.3 66 2.7 SSE 20 28 11 15 1027.8 1028.1 0.0
20/10:00am 10.3 7.1 5.1 70 2.4 SE 11 17 6 9 1027.8 1028.1 0.0
20/09:30am 9.6 6.1 5.6 76 1.8 SSE 13 19 7 10 1027.7 1028.0 0.0
20/09:00am 8.9 6.3 6.0 82 1.3 S 9 15 5 8 1027.6 1027.9 0.0
20/08:30am 8.4 5.8 6.0 85 1.1 S 9 13 5 7 1027.3 1027.6 0.0
20/08:00am 7.8 5.5 5.9 88 0.9 S 7 11 4 6 1026.9 1027.2 0.0
20/07:30am 7.4 4.7 5.5 88 0.9 S 9 11 5 6 1026.7 1027.0 0.0
20/07:00am 7.2 4.9 5.5 89 0.8 S 7 11 4 6 1026.5 1026.8 0.0
20/06:30am 7.2 4.5 5.7 90 0.7 S 9 13 5 7 1026.2 1026.5 0.0
20/06:00am 7.1 3.9 5.3 88 0.8 SSE 11 13 6 7 1026.0 1026.3 0.0
20/05:30am 7.5 4.7 5.3 86 1.0 S 9 17 5 9 1026.1 1026.4 0.0
20/05:00am 7.5 4.4 5.5 87 0.9 S 11 15 6 8 1026.0 1026.3 0.0
20/04:30am 7.4 4.2 5.0 85 1.1 S 11 17 6 9 1026.0 1026.3 0.0
20/04:00am 7.7 4.8 4.7 81 1.3 S 9 11 5 6 1025.9 1026.2 0.0
20/03:30am 8.1 4.8 4.5 78 1.6 S 11 19 6 10 1025.9 1026.2 0.0
20/03:00am 8.0 4.6 3.8 75 1.8 S 11 19 6 10 1026.0 1026.3 0.0
20/02:30am 7.5 4.9 3.4 75 1.8 S 6 7 3 4 1026.1 1026.4 0.0
20/02:00am 7.7 4.5 3.0 72 2.0 S 9 15 5 8 1026.2 1026.5 0.0
20/01:30am 6.8 4.0 3.2 78 1.5 SSE 7 11 4 6 1026.3 1026.6 0.0
20/01:00am 6.2 3.0 2.8 79 1.4 SSE 9 13 5 7 1026.3 1026.6 0.0
20/12:30am 5.7 1.5 1.6 75 1.7 SSE 13 15 7 8 1026.4 1026.7 0.0
20/12:00am 7.0 1.7 1.9 70 2.1 SSE 19 26 10 14 1026.5 1026.8 0.0
 
Date/Time
EST
Temp
°C
App
Temp
°C
Dew
Point
Rel
Hum
%
Delta-T
°C
Wind Press
QNH
hPa
Press
MSL
hPa
Rain
since 9 am
mm
Dir
 
Spd
km/h
Gust
km/h
Spd
kts
Gust
kts
19/11:30pm 7.6 4.1 3.3 74 1.8 SSE 11 13 6 7 1026.4 1026.7 0.0
19/11:00pm 7.6 4.0 3.1 73 1.9 SSE 11 15 6 8 1026.4 1026.7 0.0
19/10:30pm 8.2 3.9 3.5 72 2.0 SSE 15 20 8 11 1026.4 1026.7 0.0
19/10:00pm 8.3 5.3 3.9 74 1.9 S 9 11 5 6 1026.5 1026.8 0.0
19/09:30pm 8.8 5.0 4.0 72 2.1 S 13 17 7 9 1026.5 1026.8 0.0
19/09:00pm 8.8 5.5 4.4 74 1.9 SSE 11 15 6 8 1026.4 1026.7 0.0
19/08:30pm 9.2 5.9 4.8 74 2.0 S 11 13 6 7 1026.3 1026.6 0.0
19/08:00pm 9.1 6.2 4.7 74 2.0 S 9 11 5 6 1026.2 1026.5 0.0

Other Formats:

Comma delimited format used in spreadsheet applications
http://www.bom.gov.au/fwo/IDV60801/IDV60801.95827.axf

JavaScript Object Notation format (JSON) in row-major order
http://www.bom.gov.au/fwo/IDV60801/IDV60801.95827.json